Location: Newark
(48.8656°N, 2.3211°E)
Time: 20:57:38
(UTC+00:00)

Envisat - Pass Details

Date: 24 February 2019
Orbit: 764 x 766 km, 98.1° (Epoch: 17 October)

Event Time Altitude Azimuth Distance (km) Brightness Sun altitude
Rises 18:03:44 0° 156° (SSE) 3,219 6.0 -7.0°
Reaches altitude 10° 18:06:02 10° 154° (SSE) 2,297 5.3 -7.4°
Maximum altitude 18:11:03 67° 72° (ENE) 829 3.0 -8.2°
Drops below altitude 10° 18:16:07 10° 351° (N) 2,313 5.6 -9.0°
Sets 18:18:26 0° 349° (NNW) 3,244 6.4 -9.4°
